Regional Weather Roundup
Issued by NWS

Home | Current Version | Previous Version | Text Only | Print | Product List | Glossary Off
Versions: 1 2 3 4 5 6 7 8 9 10 11 12 13 14 15 16 17 18 19 20 21 22 23 24 25 26 27 28 29 30 31 32 33 34 35 36 37 38 39 40 41 42 43 44 45 46 47 48 49 50

000
ASUS45 KBOI 031010
RWRID

IDAHO REGIONAL WEATHER ROUNDUP
NATIONAL WEATHER SERVICE BOISE ID
400 AM MDT WED JUN 03 2015

NOTE: "FAIR" INDICATES FEW OR NO CLOUDS BELOW 12000 FEET
WITH NO SIGNIFICANT WEATHER AND/OR OBSTRUCTIONS TO VISIBILITY

IDZ012-014-031100-
SOUTHWEST IDAHO


CITY           SKY/WX    TMP DP  RH WIND       PRES   REMARKS
BOISE          CLEAR     52  48  86 CALM      29.97F
CALDWELL       MOCLDY    52  41  66 W7        29.99S
MOUNTAIN HOME  CLEAR     51  45  80 NW13      29.96F
$$

IDZ016-017-031100-
SOUTHCENTRAL IDAHO


CITY           SKY/WX    TMP DP  RH WIND       PRES   REMARKS
BURLEY         CLEAR     52  43  71 W8        29.98R
JEROME         CLEAR     50  44  80 SW7       29.99S
TWIN FALLS     CLEAR     51  42  71 S10       29.98R
$$

IDZ019>023-031100-
SOUTHEAST IDAHO


CITY           SKY/WX    TMP DP  RH WIND       PRES   REMARKS
IDAHO FALLS    PTCLDY    48  41  76 SE5       30.00S
POCATELLO      CLEAR     50  45  83 CALM      29.98F
REXBURG        CLEAR     47  41  80 NE5       30.01S
$$

IDZ006-010-011-018-031-032-031100-
CENTRAL IDAHO MOUNTAINS


CITY           SKY/WX    TMP DP  RH WIND       PRES   REMARKS
MCCALL         MOCLDY    43  41  93 CALM      30.01S
HAILEY         MOCLDY    46  37  71 NW8       30.04R
STANLEY          N/A     35  31  85 CALM      30.09S
SALMON           N/A     48  43  81 CALM      30.01F
CHALLIS        PTCLDY    44  39  82 CALM      30.02F
$$

IDZ002-004-006-007-026-031100-
NORTHERN IDAHO


CITY           SKY/WX    TMP DP  RH WIND       PRES   REMARKS
LEWISTON       MOCLDY    56  51  84 E6        29.99S
LOWELL           N/A    N/A N/A N/A CALM      30.02F
COEUR D`ALENE  CLOUDY    55  43  62 S10       29.96S
MULLAN PASS    CLOUDY    41  37  86 SW6       30.04S
$$



USA.gov is the U.S. government's official web portal to all federal, state and local government web resources and services.